Time,TemperatureF,DewpointF,PressureIn,WindDirection,WindDirectionDegrees,WindSpeedMPH,WindSpeedGustMPH,Humidity,HourlyPrecipIn,Conditions,Clouds,dailyrainin,SoftwareType,DateUTC
2013-02-11 00:00:00,12.7,10.1,29.55,ENE,58,2.0,0.0,89,0.00,RA,,0.00,WeatherDisplay:10.37,2013-02-11 09:00:00,
2013-02-11 00:05:00,12.9,10.8,29.55,NE,43,2.0,0.0,91,0.00,RA,,0.00,WeatherDisplay:10.37,2013-02-11 09:05:00,
2013-02-11 00:15:00,13.3,10.9,29.55,NE,54,2.0,0.0,90,0.00,CLR,,0.00,WeatherDisplay:10.37,2013-02-11 09:15:00,
2013-02-11 00:20:00,13.5,11.1,29.56,East,88,1.0,0.0,90,0.00,CLR,,0.00,WeatherDisplay:10.37,2013-02-11 09:20:00,
2013-02-11 00:25:00,13.5,10.8,29.56,ENE,70,2.0,0.0,89,0.00,CLR,,0.00,WeatherDisplay:10.37,2013-02-11 09:25:00,
2013-02-11 00:30:00,13.6,11.7,29.56,NE,40,1.0,0.0,92,0.00,CLR,,0.00,WeatherDisplay:10.37,2013-02-11 09:30:00,
2013-02-11 00:40:00,13.3,10.9,29.56,ENE,67,2.0,0.0,90,0.00,CLR,,0.00,WeatherDisplay:10.37,2013-02-11 09:40:00,
2013-02-11 00:45:00,13.5,11.3,29.56,NE,47,2.0,0.0,91,0.00,CLR,,0.00,WeatherDisplay:10.37,2013-02-11 09:45:00,
2013-02-11 00:55:00,13.4,12.0,29.57,NE,56,2.0,0.0,94,0.00,CLR,,0.00,WeatherDisplay:10.37,2013-02-11 09:55:00,
2013-02-11 01:00:00,13.6,11.2,29.57,NNE,33,1.0,0.0,90,0.00,CLR,,0.00,WeatherDisplay:10.37,2013-02-11 10:00:00,
2013-02-11 01:15:00,13.8,11.9,29.57,NE,43,1.0,3.0,92,0.00,CLR,,0.00,WeatherDisplay:10.37,2013-02-11 10:15:00,
2013-02-11 01:25:00,14.2,11.8,29.57,SSE,158,1.0,0.0,90,0.00,CLR,,0.00,WeatherDisplay:10.37,2013-02-11 10:25:00,
2013-02-11 01:30:00,14.2,11.8,29.58,SSE,158,2.0,0.0,90,0.00,CLR,,0.00,WeatherDisplay:10.37,2013-02-11 10:30:00,
2013-02-11 01:40:00,14.7,12.6,29.58,SSE,158,3.0,0.0,91,0.00,CLR,,0.00,WeatherDisplay:10.37,2013-02-11 10:40:00,
2013-02-11 01:45:00,14.7,12.8,29.57,SSE,158,2.0,0.0,92,0.00,CLR,,0.00,WeatherDisplay:10.37,2013-02-11 10:45:00,
2013-02-11 01:55:00,15.1,12.9,29.58,SSE,158,2.0,0.0,91,0.00,CLR,,0.00,WeatherDisplay:10.37,2013-02-11 10:55:00,
2013-02-11 02:00:00,15.1,13.9,29.58,SSE,158,3.0,0.0,95,0.00,CLR,,0.00,WeatherDisplay:10.37,2013-02-11 11:00:00,
2013-02-11 02:10:00,15.3,13.1,29.58,SSE,158,2.0,0.0,91,0.00,CLR,,0.00,WeatherDisplay:10.37,2013-02-11 11:10:00,
2013-02-11 02:15:00,15.5,13.4,29.58,SSE,158,1.0,0.0,91,0.00,CLR,,0.00,WeatherDisplay:10.37,2013-02-11 11:15:00,
2013-02-11 02:20:00,15.6,13.5,29.58,SSE,158,2.0,0.0,91,0.00,CLR,,0.00,WeatherDisplay:10.37,2013-02-11 11:20:00,
2013-02-11 02:25:00,15.8,13.6,29.58,SSE,158,2.0,0.0,91,0.00,CLR,,0.00,WeatherDisplay:10.37,2013-02-11 11:25:00,
2013-02-11 02:30:00,15.9,14.2,29.59,SSE,158,1.0,0.0,93,0.00,CLR,,0.00,WeatherDisplay:10.37,2013-02-11 11:30:00,
2013-02-11 02:40:00,16.0,14.1,29.59,SSE,158,1.0,0.0,92,0.00,CLR,,0.00,WeatherDisplay:10.37,2013-02-11 11:40:00,
2013-02-11 02:45:00,16.0,14.1,29.59,SSE,158,0.0,0.0,92,0.00,CLR,,0.00,WeatherDisplay:10.37,2013-02-11 11:45:00,
2013-02-11 02:50:00,15.9,13.7,29.59,SSE,158,1.0,0.0,91,0.00,CLR,,0.00,WeatherDisplay:10.37,2013-02-11 11:50:00,
2013-02-11 02:55:00,15.3,12.3,29.59,SSE,158,0.0,0.0,88,0.00,CLR,,0.00,WeatherDisplay:10.37,2013-02-11 11:55:00,
2013-02-11 03:00:00,14.7,12.1,29.59,SSE,158,0.0,0.0,89,0.00,CLR,,0.00,WeatherDisplay:10.37,2013-02-11 12:00:00,
2013-02-11 03:10:00,14.2,11.8,29.59,SSE,158,0.0,0.0,90,0.00,CLR,,0.00,WeatherDisplay:10.37,2013-02-11 12:10:00,
2013-02-11 03:15:00,14.0,12.1,29.59,SSE,158,0.0,0.0,92,0.00,CLR,,0.00,WeatherDisplay:10.37,2013-02-11 12:15:00,
2013-02-11 03:25:00,14.0,11.6,29.59,SSE,158,0.0,0.0,90,0.00,CLR,,0.00,WeatherDisplay:10.37,2013-02-11 12:25:00,
2013-02-11 03:30:00,14.2,12.0,29.59,SSE,158,0.0,0.0,91,0.00,CLR,,0.00,WeatherDisplay:10.37,2013-02-11 12:30:00,
2013-02-11 03:35:00,14.7,12.3,29.60,SSE,158,1.0,0.0,90,0.00,CLR,,0.00,WeatherDisplay:10.37,2013-02-11 12:35:00,
2013-02-11 03:40:00,14.7,12.3,29.60,SSE,158,0.0,0.0,90,0.00,CLR,,0.00,WeatherDisplay:10.37,2013-02-11 12:40:00,
2013-02-11 03:45:00,14.7,11.3,29.60,SSE,158,0.0,0.0,86,0.00,CLR,,0.00,WeatherDisplay:10.37,2013-02-11 12:45:00,
2013-02-11 03:50:00,14.7,12.3,29.60,SSE,158,0.0,0.0,90,0.00,CLR,,0.00,WeatherDisplay:10.37,2013-02-11 12:50:00,
2013-02-11 03:55:00,15.1,12.9,29.60,SSE,158,0.0,0.0,91,0.00,CLR,,0.00,WeatherDisplay:10.37,2013-02-11 12:55:00,
2013-02-11 04:00:00,15.4,13.0,29.61,SSE,158,0.0,0.0,90,0.00,CLR,,0.00,WeatherDisplay:10.37,2013-02-11 13:00:00,
2013-02-11 04:10:00,15.4,13.5,29.61,SSE,158,0.0,0.0,92,0.00,CLR,,0.00,WeatherDisplay:10.37,2013-02-11 13:10:00,
2013-02-11 04:15:00,15.3,13.1,29.61,SSE,158,0.0,0.0,91,0.00,CLR,,0.00,WeatherDisplay:10.37,2013-02-11 13:15:00,
2013-02-11 04:25:00,15.3,13.1,29.61,SSE,158,0.0,0.0,91,0.00,CLR,,0.00,WeatherDisplay:10.37,2013-02-11 13:25:00,
2013-02-11 04:30:00,15.3,13.8,29.61,SSE,158,1.0,0.0,94,0.00,CLR,,0.00,WeatherDisplay:10.37,2013-02-11 13:30:00,
2013-02-11 04:40:00,15.4,12.7,29.61,SSE,158,0.0,0.0,89,0.00,CLR,,0.00,WeatherDisplay:10.37,2013-02-11 13:40:00,
2013-02-11 04:45:00,15.4,13.8,29.61,SSE,158,0.0,0.0,93,0.00,CLR,,0.00,WeatherDisplay:10.37,2013-02-11 13:45:00,
2013-02-11 04:55:00,15.6,13.5,29.61,SSE,158,1.0,0.0,91,0.00,CLR,,0.00,WeatherDisplay:10.37,2013-02-11 13:55:00,
2013-02-11 05:00:00,15.7,13.6,29.61,SSE,158,0.0,0.0,91,0.00,CLR,,0.00,WeatherDisplay:10.37,2013-02-11 14:00:00,
2013-02-11 05:05:00,15.9,13.5,29.62,SSE,158,0.0,0.0,90,0.00,CLR,,0.00,WeatherDisplay:10.37,2013-02-11 14:05:00,
2013-02-11 05:10:00,16.0,13.8,29.62,SSE,158,0.0,0.0,91,0.00,CLR,,0.00,WeatherDisplay:10.37,2013-02-11 14:10:00,
2013-02-11 05:15:00,16.0,13.8,29.62,SSE,158,0.0,0.0,91,0.00,CLR,,0.00,WeatherDisplay:10.37,2013-02-11 14:15:00,
2013-02-11 05:25:00,16.2,14.0,29.62,SSE,158,0.0,0.0,91,0.00,CLR,,0.00,WeatherDisplay:10.37,2013-02-11 14:25:00,
2013-02-11 05:30:00,16.4,14.2,29.62,SSE,158,0.0,0.0,91,0.00,CLR,,0.00,WeatherDisplay:10.37,2013-02-11 14:30:00,
2013-02-11 05:35:00,16.5,14.1,29.62,SSE,158,0.0,0.0,90,0.00,CLR,,0.00,WeatherDisplay:10.37,2013-02-11 14:35:00,
2013-02-11 05:40:00,16.3,14.2,29.63,SSE,158,0.0,0.0,91,0.00,CLR,,0.00,WeatherDisplay:10.37,2013-02-11 14:40:00,
2013-02-11 05:45:00,16.0,13.6,29.63,SSE,158,0.0,0.0,90,0.00,CLR,,0.00,WeatherDisplay:10.37,2013-02-11 14:45:00,
2013-02-11 05:55:00,15.6,13.7,29.63,SSE,158,0.0,0.0,92,0.00,CLR,,0.00,WeatherDisplay:10.37,2013-02-11 14:55:00,
2013-02-11 06:00:00,15.6,13.7,29.63,SSE,158,0.0,0.0,92,0.00,CLR,,0.00,WeatherDisplay:10.37,2013-02-11 15:00:00,
2013-02-11 06:10:00,16.5,14.6,29.63,SSE,158,1.0,0.0,92,0.00,CLR,,0.00,WeatherDisplay:10.37,2013-02-11 15:10:00,
2013-02-11 06:15:00,17.1,14.9,29.63,SSE,158,0.0,0.0,91,0.00,CLR,,0.00,WeatherDisplay:10.37,2013-02-11 15:15:00,
2013-02-11 06:20:00,17.4,15.0,29.64,SSE,158,0.0,0.0,90,0.00,CLR,,0.00,WeatherDisplay:10.37,2013-02-11 15:20:00,
2013-02-11 06:25:00,17.4,15.0,29.64,SSE,158,1.0,0.0,90,0.00,CLR,,0.00,WeatherDisplay:10.37,2013-02-11 15:25:00,
2013-02-11 06:30:00,17.4,15.0,29.64,SSE,158,1.0,0.0,90,0.00,CLR,,0.00,WeatherDisplay:10.37,2013-02-11 15:30:00,
2013-02-11 06:40:00,17.1,14.6,29.64,SSE,158,0.0,0.0,90,0.00,CLR,,0.00,WeatherDisplay:10.37,2013-02-11 15:40:00,
2013-02-11 06:45:00,16.9,14.5,29.64,SSE,158,0.0,0.0,90,0.00,CLR,,0.00,WeatherDisplay:10.37,2013-02-11 15:45:00,
2013-02-11 06:50:00,16.9,14.7,29.64,SSE,158,1.0,0.0,91,0.00,CLR,,0.00,WeatherDisplay:10.37,2013-02-11 15:50:00,
2013-02-11 06:55:00,16.9,14.7,29.64,SSE,158,2.0,0.0,91,0.00,CLR,,0.00,WeatherDisplay:10.37,2013-02-11 15:55:00,
2013-02-11 07:00:00,16.5,14.1,29.64,SSE,158,0.0,0.0,90,0.00,CLR,,0.00,WeatherDisplay:10.37,2013-02-11 16:00:00,
2013-02-11 07:10:00,16.4,14.2,29.65,SSE,158,2.0,0.0,91,0.00,CLR,,0.00,WeatherDisplay:10.37,2013-02-11 16:10:00,
2013-02-11 07:15:00,16.3,13.9,29.65,SSE,158,2.0,0.0,90,0.00,CLR,,0.00,WeatherDisplay:10.37,2013-02-11 16:15:00,
2013-02-11 07:20:00,16.6,13.7,29.65,SSE,158,2.0,0.0,88,0.00,CLR,,0.00,WeatherDisplay:10.37,2013-02-11 16:20:00,
2013-02-11 07:25:00,16.9,14.5,29.65,SSE,158,1.0,0.0,90,0.00,CLR,,0.00,WeatherDisplay:10.37,2013-02-11 16:25:00,
2013-02-11 07:30:00,17.2,14.8,29.66,SSE,158,2.0,0.0,90,0.00,CLR,,0.00,WeatherDisplay:10.37,2013-02-11 16:30:00,
2013-02-11 07:40:00,16.5,14.1,29.66,SSE,158,0.0,0.0,90,0.00,CLR,,0.00,WeatherDisplay:10.37,2013-02-11 16:40:00,
2013-02-11 07:45:00,16.2,13.7,29.66,SSE,158,1.0,0.0,90,0.00,CLR,,0.00,WeatherDisplay:10.37,2013-02-11 16:45:00,
2013-02-11 07:50:00,16.2,13.7,29.66,SSE,158,0.0,0.0,90,0.00,CLR,,0.00,WeatherDisplay:10.37,2013-02-11 16:50:00,
2013-02-11 07:55:00,16.3,14.1,29.66,SSE,158,1.0,0.0,91,0.00,CLR,,0.00,WeatherDisplay:10.37,2013-02-11 16:55:00,
2013-02-11 08:00:00,16.2,14.0,29.66,SSE,158,0.0,0.0,91,0.00,CLR,,0.00,WeatherDisplay:10.37,2013-02-11 17:00:00,
2013-02-11 08:10:00,16.1,13.9,29.66,SSE,158,1.0,0.0,91,0.00,CLR,,0.00,WeatherDisplay:10.37,2013-02-11 17:10:00,
2013-02-11 08:15:00,16.2,14.2,29.66,SSE,158,1.0,0.0,92,0.00,CLR,,0.00,WeatherDisplay:10.37,2013-02-11 17:15:00,
2013-02-11 08:25:00,16.5,14.4,29.67,SSE,158,1.0,0.0,91,0.00,CLR,,0.00,WeatherDisplay:10.37,2013-02-11 17:25:00,
2013-02-11 08:30:00,16.5,14.6,29.67,SSE,158,1.0,0.0,92,0.00,CLR,,0.00,WeatherDisplay:10.37,2013-02-11 17:30:00,
2013-02-11 08:35:00,16.7,15.0,29.67,SSE,158,1.0,0.0,93,0.00,CLR,,0.00,WeatherDisplay:10.37,2013-02-11 17:35:00,
2013-02-11 08:40:00,16.7,14.8,29.67,SSE,158,2.0,0.0,92,0.00,CLR,,0.00,WeatherDisplay:10.37,2013-02-11 17:40:00,
2013-02-11 08:45:00,16.8,14.9,29.67,SSE,158,1.0,0.0,92,0.00,CLR,,0.00,WeatherDisplay:10.37,2013-02-11 17:45:00,
2013-02-11 08:55:00,16.5,14.6,29.67,SSE,158,1.0,0.0,92,0.00,CLR,,0.00,WeatherDisplay:10.37,2013-02-11 17:55:00,
2013-02-11 09:00:00,16.2,14.3,29.67,SSE,158,0.0,0.0,92,0.00,CLR,,0.00,WeatherDisplay:10.37,2013-02-11 18:00:00,
2013-02-11 09:05:00,16.0,14.1,29.68,SSE,158,0.0,0.0,92,0.00,CLR,,0.00,WeatherDisplay:10.37,2013-02-11 18:05:00,
2013-02-11 09:10:00,15.6,13.5,29.68,SSE,158,0.0,0.0,91,0.00,CLR,,0.00,WeatherDisplay:10.37,2013-02-11 18:10:00,
2013-02-11 09:15:00,15.3,13.4,29.68,SSE,158,0.0,0.0,92,0.00,CLR,,0.00,WeatherDisplay:10.37,2013-02-11 18:15:00,
2013-02-11 09:20:00,15.3,13.1,29.67,SSE,158,0.0,0.0,91,0.00,CLR,,0.00,WeatherDisplay:10.37,2013-02-11 18:20:00,
2013-02-11 09:25:00,15.1,13.2,29.68,SSE,158,0.0,0.0,92,0.00,CLR,,0.00,WeatherDisplay:10.37,2013-02-11 18:25:00,
2013-02-11 09:30:00,15.1,12.9,29.68,SSE,158,0.0,0.0,91,0.00,CLR,,0.00,WeatherDisplay:10.37,2013-02-11 18:30:00,
2013-02-11 09:40:00,15.1,12.9,29.68,SSE,158,0.0,0.0,91,0.00,CLR,,0.00,WeatherDisplay:10.37,2013-02-11 18:40:00,
2013-02-11 09:45:00,15.0,12.9,29.68,SSE,158,0.0,0.0,91,0.00,CLR,,0.00,WeatherDisplay:10.37,2013-02-11 18:45:00,
2013-02-11 09:55:00,15.1,12.9,29.69,SSE,158,0.0,0.0,91,0.00,CLR,,0.00,WeatherDisplay:10.37,2013-02-11 18:55:00,
2013-02-11 10:00:00,15.1,12.7,29.68,SSE,158,0.0,0.0,90,0.00,CLR,,0.00,WeatherDisplay:10.37,2013-02-11 19:00:00,
2013-02-11 10:10:00,15.1,12.7,29.69,SSE,158,0.0,0.0,90,0.00,CLR,,0.00,WeatherDisplay:10.37,2013-02-11 19:10:00,
2013-02-11 10:15:00,15.3,13.1,29.69,SSE,158,1.0,0.0,91,0.00,CLR,,0.00,WeatherDisplay:10.37,2013-02-11 19:15:00,
2013-02-11 10:20:00,15.4,13.0,29.69,SSE,158,0.0,0.0,90,0.00,CLR,,0.00,WeatherDisplay:10.37,2013-02-11 19:20:00,
2013-02-11 10:25:00,15.6,13.5,29.69,SSE,158,0.0,0.0,91,0.00,CLR,,0.00,WeatherDisplay:10.37,2013-02-11 19:25:00,
2013-02-11 10:30:00,15.8,13.4,29.69,SSE,158,0.0,0.0,90,0.00,CLR,,0.00,WeatherDisplay:10.37,2013-02-11 19:30:00,
2013-02-11 10:35:00,16.2,14.2,29.70,SSE,158,0.0,0.0,92,0.00,CLR,,0.00,WeatherDisplay:10.37,2013-02-11 19:35:00,
2013-02-11 10:40:00,16.8,14.4,29.70,SSE,158,0.0,0.0,90,0.00,CLR,,0.00,WeatherDisplay:10.37,2013-02-11 19:40:00,
2013-02-11 10:45:00,17.0,14.6,29.70,SSE,158,0.0,0.0,90,0.00,CLR,,0.00,WeatherDisplay:10.37,2013-02-11 19:45:00,
2013-02-11 10:55:00,17.1,15.2,29.71,SSE,158,1.0,0.0,92,0.00,CLR,,0.00,WeatherDisplay:10.37,2013-02-11 19:55:00,
2013-02-11 11:00:00,17.1,15.4,29.71,SSE,158,0.0,0.0,93,0.00,CLR,,0.00,WeatherDisplay:10.37,2013-02-11 20:00:00,
2013-02-11 11:10:00,16.8,14.4,29.71,SSE,158,2.0,0.0,90,0.00,CLR,,0.00,WeatherDisplay:10.37,2013-02-11 20:10:00,
2013-02-11 11:15:00,16.6,14.5,29.72,SSE,158,2.0,0.0,91,0.00,CLR,,0.00,WeatherDisplay:10.37,2013-02-11 20:15:00,
2013-02-11 11:25:00,16.7,14.8,29.72,SSE,158,1.0,0.0,92,0.00,CLR,,0.00,WeatherDisplay:10.37,2013-02-11 20:25:00,
2013-02-11 11:30:00,16.7,14.3,29.72,SSE,158,1.0,0.0,90,0.00,CLR,,0.00,WeatherDisplay:10.37,2013-02-11 20:30:00,
2013-02-11 11:35:00,16.7,14.5,29.72,SSE,158,0.0,0.0,91,0.00,CLR,,0.00,WeatherDisplay:10.37,2013-02-11 20:35:00,
2013-02-11 11:40:00,16.9,14.7,29.72,SSE,158,1.0,0.0,91,0.00,CLR,,0.00,WeatherDisplay:10.37,2013-02-11 20:40:00,
2013-02-11 11:45:00,17.1,14.6,29.72,SSE,158,1.0,0.0,90,0.00,CLR,,0.00,WeatherDisplay:10.37,2013-02-11 20:45:00,
2013-02-11 11:50:00,17.6,15.4,29.72,SSE,158,2.0,0.0,91,0.00,CLR,,0.00,WeatherDisplay:10.37,2013-02-11 20:50:00,
2013-02-11 11:55:00,17.8,15.1,29.73,SSE,158,1.0,0.0,89,0.00,CLR,,0.00,WeatherDisplay:10.37,2013-02-11 20:55:00,
2013-02-11 12:00:00,18.0,15.0,29.73,SSE,158,1.0,0.0,88,0.00,CLR,,0.00,WeatherDisplay:10.37,2013-02-11 21:00:00,
2013-02-11 12:10:00,18.7,16.5,29.73,SSE,158,1.0,0.0,91,0.00,CLR,,0.00,WeatherDisplay:10.37,2013-02-11 21:10:00,
2013-02-11 12:15:00,19.0,16.1,29.73,SSE,158,1.0,0.0,88,0.00,CLR,,0.00,WeatherDisplay:10.37,2013-02-11 21:15:00,
2013-02-11 12:25:00,19.6,16.6,29.73,SSE,158,0.0,0.0,88,0.00,CLR,,0.00,WeatherDisplay:10.37,2013-02-11 21:25:00,
2013-02-11 12:30:00,19.8,16.8,29.73,SSE,158,0.0,0.0,88,0.00,CLR,,0.00,WeatherDisplay:10.37,2013-02-11 21:30:00,
2013-02-11 12:35:00,19.9,16.7,29.73,SSE,158,0.0,0.0,87,0.00,CLR,,0.00,WeatherDisplay:10.37,2013-02-11 21:35:00,
2013-02-11 12:40:00,19.9,16.9,29.73,SSE,158,1.0,0.0,88,0.00,CLR,,0.00,WeatherDisplay:10.37,2013-02-11 21:40:00,
2013-02-11 12:45:00,19.6,16.9,29.73,SSE,158,1.0,0.0,89,0.00,CLR,,0.00,WeatherDisplay:10.37,2013-02-11 21:45:00,
2013-02-11 12:55:00,18.9,15.9,29.73,SSE,158,1.0,0.0,88,0.00,CLR,,0.00,WeatherDisplay:10.37,2013-02-11 21:55:00,
2013-02-11 13:00:00,18.9,15.9,29.73,SSE,158,0.0,0.0,88,0.00,CLR,,0.00,WeatherDisplay:10.37,2013-02-11 22:00:00,
2013-02-11 13:05:00,19.2,16.2,29.73,SSE,158,0.0,0.0,88,0.00,CLR,,0.00,WeatherDisplay:10.37,2013-02-11 22:05:00,
2013-02-11 13:10:00,19.2,16.5,29.73,SSE,158,0.0,0.0,89,0.00,CLR,,0.00,WeatherDisplay:10.37,2013-02-11 22:10:00,
2013-02-11 13:15:00,19.3,16.6,29.73,SSE,158,0.0,0.0,89,0.00,CLR,,0.00,WeatherDisplay:10.37,2013-02-11 22:15:00,
2013-02-11 13:25:00,19.6,16.6,29.73,SSE,158,0.0,0.0,88,0.00,CLR,,0.00,WeatherDisplay:10.37,2013-02-11 22:25:00,
2013-02-11 13:30:00,19.6,16.6,29.74,SSE,158,0.0,0.0,88,0.00,CLR,,0.00,WeatherDisplay:10.37,2013-02-11 22:30:00,
2013-02-11 13:40:00,19.4,16.4,29.74,SSE,158,0.0,0.0,88,0.00,CLR,,0.00,WeatherDisplay:10.37,2013-02-11 22:40:00,
2013-02-11 13:45:00,19.4,16.7,29.74,SSE,158,1.0,0.0,89,0.00,CLR,,0.00,WeatherDisplay:10.37,2013-02-11 22:45:00,
2013-02-11 13:50:00,19.1,16.4,29.74,SSE,158,1.0,0.0,89,0.00,CLR,,0.00,WeatherDisplay:10.37,2013-02-11 22:50:00,
2013-02-11 13:55:00,18.9,16.0,29.74,SSE,158,0.0,0.0,88,0.00,CLR,,0.00,WeatherDisplay:10.37,2013-02-11 22:55:00,
2013-02-11 14:00:00,18.9,15.9,29.74,SSE,158,0.0,0.0,88,0.00,CLR,,0.00,WeatherDisplay:10.37,2013-02-11 23:00:00,
2013-02-11 14:05:00,18.9,16.2,29.74,SSE,158,1.0,0.0,89,0.00,CLR,,0.00,WeatherDisplay:10.37,2013-02-11 23:05:00,
2013-02-11 14:10:00,19.0,16.0,29.74,SSE,158,0.0,0.0,88,0.00,CLR,,0.00,WeatherDisplay:10.37,2013-02-11 23:10:00,
2013-02-11 14:20:00,18.8,15.8,29.74,SSE,158,1.0,0.0,88,0.00,CLR,,0.00,WeatherDisplay:10.37,2013-02-11 23:20:00,
2013-02-11 14:25:00,18.7,16.0,29.74,SSE,158,0.0,0.0,89,0.00,CLR,,0.00,WeatherDisplay:10.37,2013-02-11 23:25:00,
2013-02-11 14:30:00,18.3,15.4,29.74,SSE,158,1.0,0.0,88,0.00,CLR,,0.00,WeatherDisplay:10.37,2013-02-11 23:30:00,
2013-02-11 14:35:00,18.0,16.0,29.74,SSE,158,0.0,0.0,92,0.00,CLR,,0.00,WeatherDisplay:10.37,2013-02-11 23:35:00,
2013-02-11 14:40:00,17.6,15.2,29.74,SSE,158,1.0,0.0,90,0.00,CLR,,0.00,WeatherDisplay:10.37,2013-02-11 23:40:00,
2013-02-11 14:45:00,17.2,14.6,29.74,SSE,158,1.0,0.0,89,0.00,CLR,,0.00,WeatherDisplay:10.37,2013-02-11 23:45:00,
2013-02-11 14:50:00,16.9,14.2,29.74,SSE,158,1.0,0.0,89,0.00,CLR,,0.00,WeatherDisplay:10.37,2013-02-11 23:50:00,
2013-02-11 15:00:00,16.6,14.2,29.74,SSE,158,1.0,0.0,90,0.00,CLR,,0.00,WeatherDisplay:10.37,2013-02-12 00:00:00,
2013-02-11 15:05:00,16.4,14.0,29.74,SSE,158,0.0,0.0,90,0.00,CLR,,0.00,WeatherDisplay:10.37,2013-02-12 00:05:00,
2013-02-11 15:10:00,16.2,13.5,29.74,SSE,158,0.0,0.0,89,0.00,CLR,,0.00,WeatherDisplay:10.37,2013-02-12 00:10:00,
2013-02-11 15:15:00,16.1,13.2,29.74,SSE,158,0.0,0.0,88,0.00,CLR,,0.00,WeatherDisplay:10.37,2013-02-12 00:15:00,
2013-02-11 15:25:00,15.9,13.0,29.74,SSE,158,1.0,0.0,88,0.00,CLR,,0.00,WeatherDisplay:10.37,2013-02-12 00:25:00,
2013-02-11 15:35:00,15.6,12.7,29.75,SSE,158,1.0,0.0,88,0.00,CLR,,0.00,WeatherDisplay:10.37,2013-02-12 00:35:00,
2013-02-11 15:40:00,15.6,12.7,29.74,SSE,158,0.0,0.0,88,0.00,CLR,,0.00,WeatherDisplay:10.37,2013-02-12 00:40:00,
2013-02-11 15:45:00,15.6,13.0,29.74,SSE,158,0.0,0.0,89,0.00,CLR,,0.00,WeatherDisplay:10.37,2013-02-12 00:45:00,
2013-02-11 15:50:00,15.6,12.7,29.74,SSE,158,0.0,0.0,88,0.00,CLR,,0.00,WeatherDisplay:10.37,2013-02-12 00:50:00,
2013-02-11 16:00:00,15.6,12.7,29.75,SSE,158,1.0,0.0,88,0.00,CLR,,0.00,WeatherDisplay:10.37,2013-02-12 01:00:00,
2013-02-11 16:05:00,15.5,12.6,29.74,SSE,158,1.0,0.0,88,0.00,CLR,,0.00,WeatherDisplay:10.37,2013-02-12 01:05:00,
2013-02-11 16:10:00,15.3,12.6,29.74,SSE,158,1.0,0.0,89,0.00,CLR,,0.00,WeatherDisplay:10.37,2013-02-12 01:10:00,
2013-02-11 16:15:00,15.1,12.4,29.75,SSE,158,1.0,0.0,89,0.00,CLR,,0.00,WeatherDisplay:10.37,2013-02-12 01:15:00,
2013-02-11 16:20:00,14.9,12.2,29.75,SSE,158,1.0,0.0,89,0.00,CLR,,0.00,WeatherDisplay:10.37,2013-02-12 01:20:00,
2013-02-11 16:25:00,14.7,12.1,29.75,SSE,158,0.0,0.0,89,0.00,CLR,,0.00,WeatherDisplay:10.37,2013-02-12 01:25:00,
2013-02-11 16:30:00,14.7,12.0,29.75,SSE,158,0.0,0.0,89,0.00,CLR,,0.00,WeatherDisplay:10.37,2013-02-12 01:30:00,
2013-02-11 16:40:00,14.5,11.9,29.75,SSE,158,0.0,0.0,89,0.00,CLR,,0.00,WeatherDisplay:10.37,2013-02-12 01:40:00,
2013-02-11 16:45:00,14.4,11.7,29.75,SSE,158,0.0,0.0,89,0.00,CLR,,0.00,WeatherDisplay:10.37,2013-02-12 01:45:00,
2013-02-11 16:55:00,14.2,11.5,29.75,SSE,158,0.0,0.0,89,0.00,CLR,,0.00,WeatherDisplay:10.37,2013-02-12 01:55:00,
2013-02-11 17:00:00,14.0,11.1,29.75,SSE,158,0.0,0.0,88,0.00,CLR,,0.00,WeatherDisplay:10.37,2013-02-12 02:00:00,
2013-02-11 17:10:00,13.8,11.4,29.75,SSE,158,0.0,0.0,90,0.00,CLR,,0.00,WeatherDisplay:10.37,2013-02-12 02:10:00,
2013-02-11 17:15:00,14.1,11.7,29.75,SSE,158,0.0,0.0,90,0.00,CLR,,0.00,WeatherDisplay:10.37,2013-02-12 02:15:00,
2013-02-11 17:20:00,13.9,11.3,29.76,SSE,158,0.0,0.0,89,0.00,CLR,,0.00,WeatherDisplay:10.37,2013-02-12 02:20:00,
2013-02-11 17:25:00,13.8,11.2,29.75,SSE,158,0.0,0.0,89,0.00,CLR,,0.00,WeatherDisplay:10.37,2013-02-12 02:25:00,
2013-02-11 17:30:00,13.5,10.9,29.75,SSE,158,0.0,0.0,89,0.00,CLR,,0.00,WeatherDisplay:10.37,2013-02-12 02:30:00,
2013-02-11 17:35:00,13.5,11.1,29.76,SSE,158,0.0,0.0,90,0.00,CLR,,0.00,WeatherDisplay:10.37,2013-02-12 02:35:00,
2013-02-11 17:40:00,13.3,10.9,29.76,SSE,158,0.0,0.0,90,0.00,CLR,,0.00,WeatherDisplay:10.37,2013-02-12 02:40:00,
2013-02-11 17:45:00,13.3,10.6,29.76,SSE,158,0.0,0.0,89,0.00,CLR,,0.00,WeatherDisplay:10.37,2013-02-12 02:45:00,
2013-02-11 17:55:00,12.9,10.3,29.75,SSE,158,0.0,0.0,89,0.00,CLR,,0.00,WeatherDisplay:10.37,2013-02-12 02:55:00,
2013-02-11 18:00:00,12.9,10.3,29.75,SSE,158,0.0,0.0,89,0.00,CLR,,0.00,WeatherDisplay:10.37,2013-02-12 03:00:00,
2013-02-11 18:05:00,12.9,10.5,29.76,SSE,158,0.0,0.0,90,0.00,CLR,,0.00,WeatherDisplay:10.37,2013-02-12 03:05:00,
2013-02-11 18:10:00,12.9,10.5,29.76,SSE,158,1.0,0.0,90,0.00,CLR,,0.00,WeatherDisplay:10.37,2013-02-12 03:10:00,
2013-02-11 18:15:00,12.9,10.5,29.76,SSE,158,1.0,0.0,90,0.00,CLR,,0.00,WeatherDisplay:10.37,2013-02-12 03:15:00,
2013-02-11 18:20:00,12.9,10.8,29.76,SSE,158,0.0,0.0,91,0.00,CLR,,0.00,WeatherDisplay:10.37,2013-02-12 03:20:00,
2013-02-11 18:25:00,12.9,10.5,29.76,SSE,158,0.0,0.0,90,0.00,CLR,,0.00,WeatherDisplay:10.37,2013-02-12 03:25:00,
2013-02-11 18:30:00,12.9,10.3,29.76,SSE,158,0.0,0.0,89,0.00,CLR,,0.00,WeatherDisplay:10.37,2013-02-12 03:30:00,
2013-02-11 18:40:00,12.9,10.3,29.76,SSE,158,0.0,0.0,89,0.00,CLR,,0.00,WeatherDisplay:10.37,2013-02-12 03:40:00,
2013-02-11 18:45:00,12.9,10.5,29.76,SSE,158,0.0,0.0,90,0.00,CLR,,0.00,WeatherDisplay:10.37,2013-02-12 03:45:00,
2013-02-11 18:50:00,12.7,10.1,29.76,SSE,158,0.0,0.0,89,0.00,CLR,,0.00,WeatherDisplay:10.37,2013-02-12 03:50:00,
2013-02-11 18:55:00,12.6,9.9,29.76,SSE,158,0.0,0.0,89,0.00,CLR,,0.00,WeatherDisplay:10.37,2013-02-12 03:55:00,
2013-02-11 19:00:00,12.3,9.7,29.76,SSE,158,0.0,0.0,89,0.00,CLR,,0.00,WeatherDisplay:10.37,2013-02-12 04:00:00,
2013-02-11 19:10:00,11.7,9.0,29.76,SSE,158,0.0,0.0,89,0.00,CLR,,0.00,WeatherDisplay:10.37,2013-02-12 04:10:00,
2013-02-11 19:15:00,11.5,8.9,29.76,SSE,158,0.0,0.0,89,0.00,CLR,,0.00,WeatherDisplay:10.37,2013-02-12 04:15:00,
2013-02-11 19:20:00,11.1,8.5,29.76,SSE,158,0.0,0.0,89,0.00,CLR,,0.00,WeatherDisplay:10.37,2013-02-12 04:20:00,
2013-02-11 19:25:00,10.9,8.0,29.76,SSE,158,0.0,0.0,88,0.00,CLR,,0.00,WeatherDisplay:10.37,2013-02-12 04:25:00,
2013-02-11 19:30:00,10.6,7.7,29.77,SSE,158,0.0,0.0,88,0.00,CLR,,0.00,WeatherDisplay:10.37,2013-02-12 04:30:00,
2013-02-11 19:40:00,10.2,7.4,29.77,SSE,158,1.0,0.0,88,0.00,CLR,,0.00,WeatherDisplay:10.37,2013-02-12 04:40:00,
2013-02-11 19:45:00,9.9,7.0,29.77,SSE,158,1.0,0.0,88,0.00,CLR,,0.00,WeatherDisplay:10.37,2013-02-12 04:45:00,
2013-02-11 19:55:00,9.8,6.9,29.77,SSE,158,1.0,0.0,88,0.00,CLR,,0.00,WeatherDisplay:10.37,2013-02-12 04:55:00,
2013-02-11 20:00:00,9.9,6.8,29.77,SSE,158,1.0,0.0,87,0.00,CLR,,0.00,WeatherDisplay:10.37,2013-02-12 05:00:00,
2013-02-11 20:05:00,9.9,7.0,29.77,SSE,158,0.0,0.0,88,0.00,CLR,,0.00,WeatherDisplay:10.37,2013-02-12 05:05:00,
2013-02-11 20:10:00,9.9,7.3,29.78,SSE,158,0.0,0.0,89,0.00,CLR,,0.00,WeatherDisplay:10.37,2013-02-12 05:10:00,
2013-02-11 20:15:00,9.7,6.8,29.78,SSE,158,1.0,0.0,88,0.00,CLR,,0.00,WeatherDisplay:10.37,2013-02-12 05:15:00,
2013-02-11 20:20:00,9.5,6.9,29.78,SSE,158,0.0,0.0,89,0.00,CLR,,0.00,WeatherDisplay:10.37,2013-02-12 05:20:00,
2013-02-11 20:25:00,9.3,6.5,29.78,SSE,158,0.0,0.0,88,0.00,CLR,,0.00,WeatherDisplay:10.37,2013-02-12 05:25:00,
2013-02-11 20:30:00,8.8,6.0,29.78,SSE,158,0.0,0.0,88,0.00,CLR,,0.00,WeatherDisplay:10.37,2013-02-12 05:30:00,
2013-02-11 20:40:00,8.4,5.6,29.77,SSE,158,0.0,0.0,88,0.00,CLR,,0.00,WeatherDisplay:10.37,2013-02-12 05:40:00,
2013-02-11 20:45:00,8.4,5.6,29.77,SSE,158,0.0,0.0,88,0.00,CLR,,0.00,WeatherDisplay:10.37,2013-02-12 05:45:00,
2013-02-11 20:50:00,8.4,5.3,29.77,SSE,158,0.0,0.0,87,0.00,CLR,,0.00,WeatherDisplay:10.37,2013-02-12 05:50:00,
2013-02-11 20:55:00,8.2,5.4,29.78,SSE,158,0.0,0.0,88,0.00,CLR,,0.00,WeatherDisplay:10.37,2013-02-12 05:55:00,
2013-02-11 21:00:00,8.2,5.2,29.77,SSE,158,0.0,0.0,87,0.00,CLR,,0.00,WeatherDisplay:10.37,2013-02-12 06:00:00,
2013-02-11 21:10:00,8.2,5.4,29.77,SSE,158,1.0,0.0,88,0.00,CLR,,0.00,WeatherDisplay:10.37,2013-02-12 06:10:00,
2013-02-11 21:15:00,8.3,5.2,29.77,SSE,158,1.0,0.0,87,0.00,CLR,,0.00,WeatherDisplay:10.37,2013-02-12 06:15:00,
2013-02-11 21:20:00,8.2,5.4,29.77,SSE,158,0.0,0.0,88,0.00,CLR,,0.00,WeatherDisplay:10.37,2013-02-12 06:20:00,
2013-02-11 21:25:00,8.1,5.2,29.77,SSE,158,0.0,0.0,88,0.00,CLR,,0.00,WeatherDisplay:10.37,2013-02-12 06:25:00,
2013-02-11 21:30:00,7.9,5.1,29.77,SSE,158,1.0,0.0,88,0.00,CLR,,0.00,WeatherDisplay:10.37,2013-02-12 06:30:00,
2013-02-11 21:40:00,7.8,4.4,29.77,SSE,158,0.0,0.0,86,0.00,CLR,,0.00,WeatherDisplay:10.37,2013-02-12 06:40:00,
2013-02-11 21:45:00,7.3,4.3,29.77,SSE,158,0.0,0.0,87,0.00,CLR,,0.00,WeatherDisplay:10.37,2013-02-12 06:45:00,
2013-02-11 21:55:00,7.0,3.9,29.77,SSE,158,0.0,0.0,87,0.00,CLR,,0.00,WeatherDisplay:10.37,2013-02-12 06:55:00,
2013-02-11 22:00:00,6.7,3.9,29.77,SSE,158,0.0,0.0,88,0.00,CLR,,0.00,WeatherDisplay:10.37,2013-02-12 07:00:00,
2013-02-11 22:10:00,6.6,3.1,29.77,SSE,158,0.0,0.0,85,0.00,CLR,,0.00,WeatherDisplay:10.37,2013-02-12 07:10:00,
2013-02-11 22:15:00,6.8,3.8,29.77,SSE,158,0.0,0.0,87,0.00,CLR,,0.00,WeatherDisplay:10.37,2013-02-12 07:15:00,
2013-02-11 22:25:00,6.1,2.8,29.77,SSE,158,0.0,0.0,86,0.00,CLR,,0.00,WeatherDisplay:10.37,2013-02-12 07:25:00,
2013-02-11 22:30:00,5.8,2.5,29.77,SSE,158,0.0,0.0,86,0.00,CLR,,0.00,WeatherDisplay:10.37,2013-02-12 07:30:00,
2013-02-11 22:35:00,5.5,2.2,29.78,SSE,158,0.0,0.0,86,0.00,CLR,,0.00,WeatherDisplay:10.37,2013-02-12 07:35:00,
2013-02-11 22:40:00,5.4,1.8,29.77,SSE,158,0.0,0.0,85,0.00,CLR,,0.00,WeatherDisplay:10.37,2013-02-12 07:40:00,
2013-02-11 22:45:00,5.6,2.3,29.77,SSE,158,0.0,0.0,86,0.00,CLR,,0.00,WeatherDisplay:10.37,2013-02-12 07:45:00,
2013-02-11 22:50:00,5.9,2.9,29.77,SSE,158,0.0,0.0,87,0.00,CLR,,0.00,WeatherDisplay:10.37,2013-02-12 07:50:00,
2013-02-11 22:55:00,6.1,2.8,29.77,SSE,158,0.0,0.0,86,0.00,CLR,,0.00,WeatherDisplay:10.37,2013-02-12 07:55:00,
2013-02-11 23:00:00,6.3,3.0,29.77,SSE,158,0.0,0.0,86,0.00,CLR,,0.00,WeatherDisplay:10.37,2013-02-12 08:00:00,
2013-02-11 23:10:00,6.6,3.3,29.77,SSE,158,0.0,0.0,86,0.00,CLR,,0.00,WeatherDisplay:10.37,2013-02-12 08:10:00,
2013-02-11 23:15:00,6.6,3.3,29.77,SSE,158,0.0,0.0,86,0.00,CLR,,0.00,WeatherDisplay:10.37,2013-02-12 08:15:00,
2013-02-11 23:25:00,6.1,3.3,29.77,SSE,158,0.0,0.0,88,0.00,CLR,,0.00,WeatherDisplay:10.37,2013-02-12 08:25:00,
2013-02-11 23:30:00,5.7,2.4,29.77,SSE,158,0.0,0.0,86,0.00,CLR,,0.00,WeatherDisplay:10.37,2013-02-12 08:30:00,
2013-02-11 23:35:00,5.5,2.2,29.78,SSE,158,0.0,0.0,86,0.00,CLR,,0.00,WeatherDisplay:10.37,2013-02-12 08:35:00,
2013-02-11 23:40:00,5.5,3.0,29.78,SSE,158,0.0,0.0,89,0.00,CLR,,0.00,WeatherDisplay:10.37,2013-02-12 08:40:00,
2013-02-11 23:45:00,5.7,2.9,29.78,SSE,158,0.0,0.0,88,0.00,CLR,,0.00,WeatherDisplay:10.37,2013-02-12 08:45:00,
2013-02-11 23:55:00,5.7,2.9,29.78,SSE,158,0.0,0.0,88,0.00,CLR,,0.00,WeatherDisplay:10.37,2013-02-12 08:55:00,